Theta_e
288 289 293 296 298 301 302 303 304 306 309 311 312 313 314 315 314 314 313 313 312 312 310 311 312 311 313 316 319 316 316 317 316 316 316 315 316 317 316 316 317 318 317
288 288 291 293 295 296 299 302 303 304 305 307 309 310 312 313 313 313 312 312 310 311 310 310 312 312 311 315 316 315 316 315 315 314 315 315 313 314 314 315 315 316 316
287 286 286 288 290 292 294 296 298 301 303 305 307 308 309 310 311 311 311 311 311 310 310 310 310 311 311 312 314 314 314 313 314 313 313 313 312 312 313 314 314 315 314
285 285 285 285 286 287 289 292 294 297 299 302 304 305 306 308 308 309 309 309 309 308 308 309 309 309 309 310 312 313 313 313 312 313 312 312 313 312 312 312 311 311 314
284 284 283 283 283 285 287 288 290 293 294 297 299 301 302 303 304 307 308 308 308 307 307 308 308 308 307 308 309 311 312 312 312 312 313 312 312 312 311 308 309 309 309
283 283 282 282 282 283 285 286 288 289 291 293 294 296 297 300 302 304 306 307 307 306 306 307 307 307 307 306 307 308 310 311 311 311 312 312 312 312 311 312 309 305 307
282 281 281 281 281 281 283 284 285 286 288 289 291 292 293 294 295 297 298 300 303 304 304 305 305 306 306 306 305 305 306 307 310 310 311 311 311 312 312 310 309 307 307
281 280 279 279 279 280 281 282 283 284 285 286 287 288 289 290 291 292 293 294 295 297 298 300 303 303 304 305 305 305 304 304 305 306 308 310 310 311 310 310 309 307 307
280 279 278 278 278 279 279 279 281 282 282 283 284 285 286 287 287 288 289 291 292 293 294 295 297 299 301 301 302 303 304 303 302 303 304 308 309 309 310 309 310 308 307
279 278 277 277 277 277 277 278 278 278 279 280 281 281 282 283 285 285 286 287 288 290 291 293 294 295 296 298 299 300 300 301 301 301 301 303 303 306 308 309 308 309 307
277 277 276 276 275 276 276 276 277 277 278 278 278 279 280 280 280 281 283 285 285 286 287 289 291 292 293 293 295 297 298 298 299 299 300 301 302 303 305 306 307 307 307
277 276 275 275 275 275 275 275 276 276 276 277 277 277 278 278 279 279 280 280 281 283 285 286 286 288 289 290 291 292 294 296 297 298 298 299 300 300 303 304 306 306 306
276 276 275 275 274 275 275 275 275 276 276 276 276 277 277 277 278 278 278 278 279 279 280 282 285 286 286 287 288 288 289 291 293 294 296 297 297 298 299 300 302 303 303
275 274 274 273 274 274 274 275 275 275 275 275 276 276 276 276 276 277 277 277 278 278 278 279 279 281 284 285 285 286 286 287 289 291 292 293 295 296 296 297 298 299 300
275 274 274 274 274 274 274 274 274 274 274 275 274 275 275 275 275 276 276 276 276 277 277 278 278 278 278 281 283 284 284 285 286 287 289 290 291 292 294 294 295 297 297
273 273 273 273 274 274 274 274 274 274 274 274 274 274 274 274 274 274 275 275 276 276 276 276 277 277 277 277 277 279 280 283 284 285 286 288 289 289 290 291 293 293 295
273 272 272 272 273 273 273 273 273 273 273 273 273 273 273 273 273 272 273 273 273 274 275 275 275 276 276 276 276 277 277 279 283 283 284 285 286 287 288 289 289 290 292
271 272 271 271 272 272 271 271 271 271 271 271 271 271 271 272 272 272 272 271 271 271 271 272 273 273 274 275 274 275 276 276 277 278 281 282 284 285 286 287 287 288 289
271 271 270 270 270 270 269 270 270 269 269 269 268 268 269 269 269 269 269 270 270 270 270 270 270 270 271 272 273 274 274 275 275 276 276 278 280 283 284 284 285 286 287
270 270 269 269 269 269 269 268 268 268 267 267 267 267 267 267 267 267 267 268 268 268 268 268 268 269 269 270 271 273 274 274 274 275 275 276 278 280 281 283 283 284 285
269 269 269 268 268 268 268 268 268 267 267 267 267 267 267 267 267 266 267 267 267 266 267 267 267 267 268 269 270 272 273 274 274 275 275 275 277 278 280 281 282 283 284
269 268 268 268 268 268 267 267 267 267 266 266 266 267 266 266 266 266 266 266 266 266 266 266 266 267 267 268 269 271 273 274 275 275 274 274 275 276 278 280 281 282 283
268 268 268 268 268 268 267 267 267 267 266 266 266 266 266 266 266 266 265 265 265 265 265 265 266 267 267 267 268 270 271 272 273 273 274 275 276 277 277 278 279 280 281
268 268 268 268 269 268 267 267 267 266 266 266 266 266 266 266 265 265 265 265 265 265 265 266 267 267 267 268 268 268 269 270 271 272 272 273 275 276 277 277 277 277 279
268 268 268 268 267 268 268 267 267 266 266 265 265 266 266 265 265 265 264 264 265 266 267 268 268 268 268 268 269 270 271 271 271 272 272 273 273 273 274 275 276 277 277
268 268 268 268 268 268 268 268 267 266 266 265 265 265 265 265 265 264 264 265 265 266 267 268 268 268 269 269 270 270 270 271 271 271 271 272 272 273 274 274 275 276 277
Wind_Speed
19 22 23 24 24 22 21 21 17 14 3 2 4 5 4 3 2 6 8 9 6 9 7 8 9 10 10 10 10 12 14 16 15 13 17 17 18 21 22 22 23 22 22
23 25 26 26 28 28 27 24 21 18 14 6 1 1 3 5 6 4 7 9 8 10 9 8 9 10 10 9 11 14 15 17 16 12 13 11 17 24 24 24 24 24 24
24 26 27 28 28 30 30 28 26 22 18 12 4 5 6 8 6 2 5 6 8 8 9 9 11 11 11 11 12 15 18 19 18 16 12 7 9 9 11 18 28 29 28
22 24 24 26 27 27 26 26 26 24 22 18 14 8 3 0 4 2 2 2 2 4 9 9 10 12 13 14 14 14 16 20 22 21 21 21 14 5 5 8 10 23 33
21 22 23 22 23 24 24 23 23 23 23 21 18 14 10 5 4 3 5 5 8 8 10 11 12 11 11 13 15 16 16 18 21 24 24 24 27 25 20 15 10 14 17
19 20 20 21 23 23 24 23 23 22 21 20 20 18 15 11 7 5 10 9 11 11 15 14 14 14 15 13 16 17 20 19 21 23 25 27 28 29 29 30 25 21 20
18 20 22 23 23 25 25 25 24 24 22 20 18 18 17 16 15 13 11 9 9 10 13 15 15 16 17 18 17 18 20 23 22 24 26 27 29 27 27 21 22 20 21
17 18 19 20 22 23 24 24 25 25 24 22 21 19 17 16 16 16 15 15 15 14 14 14 16 17 19 21 22 21 20 21 24 26 27 30 30 31 30 26 22 24 20
15 16 17 18 20 21 22 23 23 23 23 23 21 21 20 19 18 17 16 16 16 17 17 17 18 18 19 21 23 23 24 22 23 26 28 29 33 33 35 31 32 29 23
13 13 14 16 18 19 19 19 20 21 22 21 21 21 20 19 19 19 18 18 18 17 18 18 19 19 20 21 23 25 24 26 25 24 27 30 32 34 39 39 34 36 35
10 11 13 15 17 18 20 20 20 20 20 19 20 20 20 20 20 20 20 20 20 19 19 19 19 19 20 21 21 22 25 28 25 23 25 25 30 33 33 38 43 40 37
7 11 15 17 20 21 22 22 22 22 22 21 21 21 20 20 20 21 21 20 20 20 21 20 20 19 18 18 20 22 22 23 28 29 24 24 25 27 30 32 36 45 45
9 13 19 22 22 23 23 23 23 23 22 22 22 21 22 22 22 22 22 22 22 21 20 20 20 20 20 19 17 19 22 22 21 23 30 31 25 25 26 33 33 35 39
10 17 23 24 23 24 25 24 24 23 24 24 24 24 23 23 23 24 24 23 23 23 23 21 20 20 19 19 19 19 21 21 21 21 21 24 31 30 27 28 33 33 31
13 23 26 26 26 26 26 25 25 25 26 26 26 26 26 25 24 24 24 24 24 24 24 23 22 21 21 20 19 19 23 24 23 21 21 21 21 25 32 30 29 30 35
18 26 26 26 26 26 27 27 27 27 27 27 27 28 27 28 28 28 27 26 25 24 25 25 25 24 23 21 20 20 23 26 26 26 24 23 22 21 23 25 32 32 29
25 27 25 25 24 24 24 26 27 26 26 27 27 27 28 29 30 30 30 30 29 28 26 25 25 26 25 23 22 22 24 28 25 25 26 26 25 24 23 23 24 27 32
28 24 23 23 22 22 24 25 25 25 26 26 26 27 28 30 31 31 31 32 32 31 30 29 27 26 26 25 24 24 27 28 27 26 25 25 26 26 25 24 24 25 27
24 23 24 24 24 25 24 24 25 25 26 25 25 28 29 30 30 31 31 31 32 32 32 30 29 29 29 27 25 25 27 28 28 27 25 24 25 24 24 23 23 25 27
22 24 23 24 26 24 24 25 24 26 25 23 26 29 28 28 29 29 29 30 30 31 28 29 30 31 31 28 25 23 25 29 30 28 25 21 20 22 23 21 21 24 23
23 22 22 24 24 24 22 23 24 26 24 26 29 28 27 28 28 27 29 30 28 27 30 31 29 29 26 25 23 22 23 25 28 28 28 27 21 21 21 24 25 25 24
23 22 23 24 24 23 20 22 26 25 26 28 28 28 28 28 26 27 28 25 28 29 28 30 31 28 28 24 23 22 23 24 28 30 30 32 28 26 25 24 23 23 26
24 23 24 26 25 21 21 25 27 28 27 29 29 29 29 29 27 26 26 29 27 27 28 28 28 31 33 32 25 23 23 23 25 27 27 27 27 27 28 30 30 27 26
25 24 25 26 26 25 28 29 29 28 29 30 30 31 31 29 26 27 27 29 27 24 28 30 33 33 33 33 32 30 26 27 29 29 30 27 27 28 28 27 26 29 33
25 25 25 28 29 31 30 30 31 30 30 31 32 33 32 30 30 31 30 26 25 25 30 32 33 35 33 33 30 31 33 33 33 32 35 36 33 33 33 31 27 25 25
25 27 29 32 31 32 33 33 31 29 29 32 33 34 29 32 31 33 33 26 24 26 26 27 28 30 30 30 30 30 30 30 30 32 34 34 32 29 29 26 29 27 25
Wind_Direction
37 39 37 41 44 42 39 37 34 33 19 97 162 171 158 142 308 306 248 235 269 270 269 247 250 254 226 251 221 220 230 237 239 245 239 237 245 245 246 249 248 246 248
34 35 36 41 41 43 43 41 37 34 32 24 348 199 192 182 191 185 310 292 254 259 270 256 251 262 245 228 241 228 229 234 238 247 240 249 260 245 243 246 250 251 246
36 31 29 30 34 39 40 40 39 38 37 32 13 245 229 238 234 157 91 59 319 272 272 262 254 251 254 236 247 243 243 241 243 243 237 241 247 281 261 250 244 244 246
39 36 30 26 27 30 35 39 38 40 40 40 41 46 61 99 67 93 135 218 259 209 234 241 253 255 255 252 239 258 251 249 245 246 239 241 256 276 282 272 276 251 246
39 34 31 26 25 28 31 32 34 37 39 39 41 42 41 21 320 255 238 228 244 261 252 250 244 240 250 250 249 242 260 254 252 246 249 248 252 253 265 281 293 294 273
38 34 32 28 25 25 29 29 29 29 32 34 34 33 30 25 4 298 262 253 248 251 259 256 251 247 240 246 256 248 241 258 252 254 249 250 250 253 251 260 265 281 284
36 30 26 24 21 21 22 24 24 25 23 22 23 26 24 18 14 6 354 328 294 267 256 258 259 254 249 246 241 252 252 246 253 249 252 251 253 256 256 261 258 266 269
35 29 22 20 19 17 17 18 19 18 19 18 17 14 12 11 9 3 356 347 337 327 314 292 273 264 256 252 251 248 251 254 257 259 248 248 250 251 250 243 247 249 250
33 27 16 15 15 15 14 13 13 14 13 13 12 11 8 4 0 356 351 345 336 328 323 318 309 293 273 261 254 251 249 245 256 258 263 252 245 246 250 247 243 244 248
29 23 16 8 9 11 11 11 11 10 7 6 6 5 4 2 357 352 348 344 337 330 322 317 315 311 306 290 271 259 251 247 240 246 257 259 260 246 242 250 246 245 245
23 14 10 4 4 5 5 5 4 3 2 1 359 355 354 352 350 347 344 341 338 334 329 324 318 314 312 309 301 289 273 259 254 246 242 250 257 259 252 245 247 248 244
5 3 4 360 359 359 358 359 357 356 356 353 351 348 345 342 339 338 337 336 334 333 331 328 324 317 309 306 307 304 296 285 269 257 251 246 243 250 254 252 249 245 248
347 356 355 355 353 352 351 350 350 348 346 345 342 340 337 335 334 333 331 330 328 327 324 323 321 320 316 307 300 302 302 298 290 280 264 257 252 246 242 245 253 254 251
338 348 349 348 347 346 344 342 344 343 340 338 338 336 334 333 331 329 328 325 323 321 319 318 316 313 312 311 304 299 298 296 295 290 282 273 261 258 254 246 241 244 250
338 343 342 340 339 338 337 336 337 338 336 334 334 333 331 330 328 325 323 321 321 320 317 314 311 308 305 303 303 302 299 295 290 289 287 281 273 264 257 259 253 246 244
337 336 334 332 332 332 330 330 331 332 331 330 329 329 328 328 327 326 324 322 319 317 314 313 311 309 306 302 298 307 302 294 293 292 284 282 279 275 268 260 254 252 252
331 329 327 325 326 325 324 324 325 325 325 325 325 324 324 324 324 324 324 323 322 319 315 312 310 307 306 307 307 308 300 293 289 292 292 287 279 276 276 272 264 256 249
324 322 321 321 322 323 324 321 321 322 324 324 322 322 321 319 319 318 318 318 318 319 318 316 314 309 305 305 307 310 298 294 292 288 285 287 286 281 276 276 276 270 260
317 319 322 322 323 325 319 318 322 323 322 324 323 318 319 318 317 317 316 316 316 314 315 315 312 309 307 307 308 309 303 300 297 293 289 287 288 285 282 276 273 274 270
318 318 320 318 316 321 322 319 319 319 320 320 311 313 316 316 315 316 317 315 314 314 317 312 307 307 306 309 311 310 307 302 303 299 297 292 288 292 289 281 277 271 273
318 320 311 311 316 318 314 313 315 315 317 307 310 314 315 315 315 313 312 314 318 316 308 311 313 311 314 310 310 307 303 302 307 308 303 295 289 285 281 287 282 266 268
317 315 311 311 313 315 314 311 307 311 305 307 310 313 314 314 312 310 313 316 310 313 315 313 314 314 315 316 310 304 296 294 294 295 296 295 292 286 279 275 280 285 281
313 313 311 310 314 317 315 305 305 306 307 307 309 311 311 311 312 314 310 304 308 306 311 317 323 326 327 325 318 307 300 295 290 291 293 292 289 283 276 264 264 269 272
313 312 309 311 314 316 307 306 307 307 303 304 306 309 310 311 304 300 304 303 306 308 310 314 316 316 311 314 315 315 311 307 301 297 297 294 290 286 284 281 273 265 260
309 310 310 311 306 305 307 309 307 306 301 302 303 306 308 309 306 304 304 303 303 303 304 303 302 305 304 307 308 304 300 297 294 293 291 292 292 291 291 288 291 277 270
311 310 302 300 305 307 307 309 309 305 299 296 299 303 302 301 303 304 304 301 293 294 294 295 295 297 297 301 302 302 301 298 295 289 287 289 292 291 285 284 284 282 272